Regional Weather Roundup
Issued by NWS Raleigh/Durham, NC

Current Version | Previous Version | Graphics & Text | Print | Product List | Glossary On
Versions: 1 2 3 4 5 6 7 8 9 10 11 12 13 14 15 16 17 18 19 20 21 22 23 24 25 26 27 28 29 30 31 32 33 34 35 36 37 38 39 40 41 42 43 44 45 46 47 48 49 50
000
ASUS42 KRAH 210610
RWRRAH
NORTH CAROLINA WEATHER ROUNDUP
NATIONAL WEATHER SERVICE RALEIGH NC
200 AM EDT THU SEP 21 2017

NOTE: "FAIR" INDICATES FEW OR NO CLOUDS BELOW 12,000 FEET WITH NO
SIGNIFICANT WEATHER AND/OR OBSTRUCTIONS TO VISIBILITY.

NCZ001-053-055-056-065-067-210700-
WESTERN NORTH CAROLINA

CITY           SKY/WX    TMP DP  RH WIND       PRES   REMARKS
ASHEVILLE      CLEAR     62  60  93 CALM      30.14S
JEFFERSON      CLEAR     64  57  77 NW5       30.17S
MORGANTON      CLEAR     62  62 100 CALM      30.11R
HICKORY        PTCLDY    69  65  86 NW5       30.06S
RUTHERFORDTON  CLEAR     68  67  96 N6        30.07S
MOUNT AIRY     CLEAR     66  62  87 CALM      30.09R
BOONE          CLEAR     55  55 100 CALM      30.18R FOG
$$

NCZ021-022-025-041-071-084-088-210700-
CENTRAL NORTH CAROLINA

CITY           SKY/WX    TMP DP  RH WIND       PRES   REMARKS
CHARLOTTE      PTCLDY    72  70  93 NW5       30.04S
GREENSBORO     PTCLDY    70  66  87 NE3       30.04S
WINSTON-SALEM  CLEAR     68  64  87 N5        30.06R
RALEIGH-DURHAM PTCLDY    69  68  96 CALM      30.01S
FORT BRAGG     CLEAR     72  67  82 CALM      29.99F
FAYETTEVILLE   CLEAR     70  67  90 SW3       29.99F
BURLINGTON     CLEAR     68  66  93 CALM      30.03R
LAURINBURG     CLEAR     67  66  97 W5        30.02S
$$

NCZ011-015-027-028-043-044-047-080-103-210700-
NORTHEASTERN NORTH CAROLINA

CITY           SKY/WX    TMP DP  RH WIND       PRES   REMARKS
ROCKY MT-WILSO CLEAR     67  67 100 CALM      30.00S
GREENVILLE     CLEAR     70  70 100 CALM      30.01S
WASHINGTON     PTCLDY    71  69  95 CALM      30.00R
ELIZABETH CITY PTCLDY    67  67 100 CALM      29.98S
MANTEO         NOT AVBL
CAPE HATTERAS  CLEAR     75  74  96 W3        29.98S
$$

NCZ078-087-090-091-093-098-101-210700-
SOUTHEASTERN NORTH CAROLINA

CITY           SKY/WX    TMP DP  RH WIND       PRES   REMARKS
LUMBERTON      CLEAR     67  65  93 CALM      29.99F
GOLDSBORO      CLEAR     69  69 100 S3        29.98S
KINSTON        CLEAR     68  66  94 CALM      30.00S
KENANSVILLE    CLEAR     68  64  88 SW3       30.01R
NEW BERN       PTCLDY    72  72 100 CALM      30.00S FOG
CHERRY POINT   PTCLDY    73  73 100 SW3       30.00S
BEAUFORT       CLEAR     76  75  97 W5        29.99S
JACKSONVILLE   CLEAR     72  72 100 W5        29.99S
WILMINGTON     CLEAR     75  72  90 SW3       30.00S
$$




USA.gov is the U.S. government's official web portal to all federal, state and local government web resources and services.